TimeEST,TemperatureF,Dew PointF,Humidity,Sea Level PressureIn,VisibilityMPH,Wind Direction,Wind SpeedMPH,Gust SpeedMPH,PrecipitationIn,Events,Conditions,WindDirDegrees,DateUTC
12:10 AM,41.2,31.5,68,30.15,10.0,NW,5.8,-,N/A,,Clear,320,2013-03-08 05:10:00
12:25 AM,41.0,31.3,68,30.15,10.0,NW,8.1,-,N/A,,Clear,320,2013-03-08 05:25:00
12:50 AM,41.0,30.7,67,30.15,10.0,NW,9.2,-,N/A,,Clear,310,2013-03-08 05:50:00
1:10 AM,40.6,30.6,67,30.15,10.0,NW,10.4,-,N/A,,Clear,310,2013-03-08 06:10:00
1:30 AM,40.3,30.2,67,30.15,10.0,NW,8.1,-,N/A,,Clear,320,2013-03-08 06:30:00
1:50 AM,40.3,30.0,67,30.15,10.0,NW,9.2,-,N/A,,Clear,310,2013-03-08 06:50:00
2:10 AM,40.1,30.0,67,30.15,10.0,NNW,8.1,-,N/A,,Clear,330,2013-03-08 07:10:00
2:30 AM,39.6,29.7,68,30.14,10.0,NW,6.9,-,N/A,,Clear,310,2013-03-08 07:30:00
2:50 AM,39.2,29.5,68,30.14,10.0,NW,9.2,-,N/A,,Clear,310,2013-03-08 07:50:00
3:10 AM,39.0,29.3,68,30.14,10.0,NW,5.8,-,N/A,,Clear,320,2013-03-08 08:10:00
3:30 AM,38.8,29.3,69,30.13,10.0,NW,11.5,17.3,N/A,,Clear,310,2013-03-08 08:30:00
3:50 AM,39.2,29.1,67,30.13,10.0,NW,8.1,16.1,N/A,,Clear,320,2013-03-08 08:50:00
4:10 AM,38.8,29.1,68,30.14,10.0,NW,9.2,-,N/A,,Clear,320,2013-03-08 09:10:00
4:30 AM,38.7,29.3,69,30.15,10.0,NW,6.9,-,N/A,,Scattered Clouds,320,2013-03-08 09:30:00
4:50 AM,39.4,30.0,69,30.15,10.0,NW,6.9,-,N/A,,Mostly Cloudy,320,2013-03-08 09:50:00
5:10 AM,38.8,30.2,71,30.15,10.0,WNW,6.9,-,N/A,,Scattered Clouds,300,2013-03-08 10:10:00
5:30 AM,38.7,30.7,73,30.15,10.0,NW,9.2,-,N/A,,Clear,320,2013-03-08 10:30:00
5:50 AM,38.7,30.6,73,30.15,10.0,NW,10.4,-,N/A,,Scattered Clouds,310,2013-03-08 10:50:00
6:10 AM,39.2,30.6,71,30.15,10.0,NNW,5.8,-,N/A,,Overcast,330,2013-03-08 11:10:00
6:30 AM,39.2,30.7,72,30.16,10.0,North,9.2,-,N/A,,Overcast,360,2013-03-08 11:30:00
6:50 AM,37.9,32.0,79,30.17,10.0,NNW,9.2,-,N/A,,Overcast,330,2013-03-08 11:50:00
7:10 AM,38.3,31.1,75,30.16,10.0,NNW,8.1,-,N/A,,Scattered Clouds,330,2013-03-08 12:10:00
7:30 AM,38.8,31.1,74,30.17,10.0,NNW,6.9,-,N/A,,Mostly Cloudy,330,2013-03-08 12:30:00
7:50 AM,39.7,30.2,69,30.17,10.0,NNW,12.7,20.7,N/A,,Mostly Cloudy,340,2013-03-08 12:50:00
8:10 AM,41.0,30.0,65,30.17,10.0,NNW,13.8,25.3,N/A,,Mostly Cloudy,330,2013-03-08 13:10:00
8:30 AM,41.2,28.6,61,30.17,10.0,NNW,16.1,24.2,N/A,,Overcast,340,2013-03-08 13:30:00
8:50 AM,40.5,27.9,61,30.17,10.0,NNW,16.1,27.6,N/A,,Overcast,330,2013-03-08 13:50:00
9:10 AM,42.6,27.7,56,30.17,10.0,NNW,16.1,27.6,N/A,,Scattered Clouds,330,2013-03-08 14:10:00
9:30 AM,41.9,27.5,57,30.17,10.0,North,19.6,26.5,N/A,,Mostly Cloudy,350,2013-03-08 14:30:00
9:50 AM,42.1,26.6,54,30.17,10.0,NNW,17.3,31.1,N/A,,Overcast,330,2013-03-08 14:50:00
10:10 AM,42.3,25.5,52,30.17,10.0,North,16.1,25.3,N/A,,Mostly Cloudy,350,2013-03-08 15:10:00
10:30 AM,43.9,24.6,47,30.17,10.0,NNW,12.7,28.8,N/A,,Mostly Cloudy,340,2013-03-08 15:30:00
11:10 AM,45.7,24.4,43,30.17,10.0,NNW,18.4,26.5,N/A,,Scattered Clouds,340,2013-03-08 16:10:00
11:30 AM,46.0,24.4,43,30.17,10.0,NNW,16.1,29.9,N/A,,Clear,340,2013-03-08 16:30:00
11:50 AM,48.2,25.7,42,30.17,10.0,NW,13.8,21.9,N/A,,Scattered Clouds,320,2013-03-08 16:50:00
12:10 PM,48.4,26.8,43,30.16,10.0,NNW,13.8,25.3,N/A,,Scattered Clouds,330,2013-03-08 17:10:00
12:30 PM,48.4,27.0,43,30.15,10.0,NW,17.3,24.2,N/A,,Scattered Clouds,310,2013-03-08 17:30:00
12:50 PM,48.6,28.0,45,30.15,10.0,NW,15.0,29.9,N/A,,Clear,320,2013-03-08 17:50:00
1:10 PM,49.1,27.5,43,30.14,10.0,NW,11.5,23.0,N/A,,Clear,320,2013-03-08 18:10:00
1:30 PM,49.6,28.0,43,30.14,10.0,NNW,21.9,33.4,N/A,,Clear,340,2013-03-08 18:30:00
1:50 PM,49.8,28.4,44,30.13,10.0,NNW,16.1,31.1,N/A,,Scattered Clouds,330,2013-03-08 18:50:00
2:10 PM,50.5,28.8,43,30.13,10.0,North,15.0,25.3,N/A,,Scattered Clouds,360,2013-03-08 19:10:00
2:30 PM,50.2,28.6,43,30.14,10.0,North,17.3,29.9,N/A,,Scattered Clouds,350,2013-03-08 19:30:00
2:50 PM,51.3,28.6,42,30.14,10.0,NW,15.0,26.5,N/A,,Scattered Clouds,320,2013-03-08 19:50:00
3:10 PM,50.2,28.8,44,30.15,10.0,North,19.6,27.6,N/A,,Scattered Clouds,360,2013-03-08 20:10:00
3:30 PM,49.5,28.9,45,30.15,10.0,NW,16.1,25.3,N/A,,Scattered Clouds,320,2013-03-08 20:30:00
3:50 PM,49.8,29.3,45,30.16,10.0,NNW,12.7,19.6,N/A,,Mostly Cloudy,330,2013-03-08 20:50:00
4:10 PM,49.8,28.8,44,30.16,10.0,NNW,15.0,27.6,N/A,,Overcast,340,2013-03-08 21:10:00
4:30 PM,50.0,29.1,45,30.16,10.0,NNW,16.1,27.6,N/A,,Mostly Cloudy,330,2013-03-08 21:30:00
4:50 PM,50.0,29.3,45,30.17,10.0,North,15.0,27.6,N/A,,Overcast,350,2013-03-08 21:50:00
5:10 PM,49.6,29.3,46,30.18,10.0,North,13.8,21.9,N/A,,Overcast,350,2013-03-08 22:10:00
5:30 PM,49.5,29.3,46,30.20,10.0,NNW,9.2,23.0,N/A,,Overcast,340,2013-03-08 22:30:00
5:50 PM,49.1,29.3,46,30.20,10.0,North,11.5,19.6,N/A,,Overcast,350,2013-03-08 22:50:00
6:10 PM,49.1,29.1,46,30.21,10.0,NNW,11.5,24.2,N/A,,Overcast,340,2013-03-08 23:10:00
6:30 PM,48.7,29.3,47,30.21,10.0,NNW,12.7,26.5,N/A,,Overcast,340,2013-03-08 23:30:00
6:50 PM,48.7,29.3,47,30.22,10.0,NNW,10.4,21.9,N/A,,Overcast,330,2013-03-08 23:50:00
7:10 PM,48.4,29.1,47,30.22,10.0,NNW,10.4,20.7,N/A,,Overcast,330,2013-03-09 00:10:00
7:30 PM,48.6,29.3,47,30.23,10.0,NNW,11.5,18.4,N/A,,Overcast,340,2013-03-09 00:30:00
7:50 PM,48.6,29.3,47,30.24,10.0,NNW,8.1,18.4,N/A,,Overcast,340,2013-03-09 00:50:00
8:10 PM,48.6,29.1,47,30.24,10.0,NNW,11.5,16.1,N/A,,Overcast,340,2013-03-09 01:10:00
8:30 PM,48.6,28.9,47,30.25,10.0,North,8.1,18.4,N/A,,Overcast,350,2013-03-09 01:30:00
8:50 PM,48.2,28.4,46,30.25,10.0,NNW,11.5,18.4,N/A,,Mostly Cloudy,330,2013-03-09 01:50:00
9:10 PM,47.8,28.8,48,30.25,10.0,North,5.8,18.4,N/A,,Mostly Cloudy,360,2013-03-09 02:10:00
9:30 PM,47.5,28.9,49,30.25,10.0,NNW,8.1,16.1,N/A,,Overcast,340,2013-03-09 02:30:00
9:50 PM,47.3,28.9,49,30.25,10.0,North,4.6,-,N/A,,Mostly Cloudy,360,2013-03-09 02:50:00
10:10 PM,46.8,28.4,49,30.26,10.0,NNW,5.8,-,N/A,,Mostly Cloudy,330,2013-03-09 03:10:00
10:30 PM,46.4,28.6,50,30.26,10.0,North,8.1,-,N/A,,Scattered Clouds,350,2013-03-09 03:30:00
10:50 PM,45.9,28.2,50,30.27,10.0,NNW,6.9,-,N/A,,Clear,340,2013-03-09 03:50:00
11:10 PM,45.7,27.7,49,30.27,10.0,NNW,5.8,-,N/A,,Clear,340,2013-03-09 04:10:00
11:50 PM,45.0,27.3,50,30.26,10.0,North,6.9,-,N/A,,Clear,360,2013-03-09 04:50:00